| time (UTC) | temp F | wind direction | speed knots | gust knots | rain 1hr in | rain 24hr in | rain mn in | humidity % | barometer mb |
| 20260505032404 | 70 | 185 | 1.7 | 7.8 | 0.00 | 0.00 | 0.00 | 48 | 1006.9 |
| 20260505031906 | 70 | 235 | 0.9 | 7.0 | 0.00 | 0.00 | 0.00 | 48 | 1006.9 |
| 20260505031405 | 70 | 182 | 0.9 | 7.0 | 0.00 | 0.00 | 0.00 | 48 | 1006.9 |
| 20260505030905 | 70 | 178 | 0.0 | 6.1 | 0.00 | 0.00 | 0.00 | 48 | 1007.0 |
| 20260505030405 | 70 | 209 | 0.0 | 7.0 | 0.00 | 0.00 | 0.00 | 47 | 1006.9 |
| 20260505025406 | 71 | 160 | 0.0 | 7.0 | 0.00 | 0.00 | 0.00 | 47 | 1006.8 |
| 20260505024904 | 71 | 174 | 2.6 | 7.8 | 0.00 | 0.00 | 0.00 | 46 | 1006.8 |
| 20260505024405 | 71 | 274 | 4.3 | 7.8 | 0.00 | 0.00 | 0.00 | 46 | 1006.8 |
| 20260505022405 | 71 | 194 | 1.7 | 8.7 | 0.00 | 0.00 | 0.00 | 46 | 1006.6 |
| 20260505021905 | 71 | 203 | 2.6 | 7.8 | 0.00 | 0.00 | 0.00 | 45 | 1006.5 |
| 20260505020905 | 71 | 219 | 2.6 | 7.0 | 0.00 | 0.00 | 0.00 | 45 | 1006.4 |
| 20260505020404 | 72 | 169 | 2.6 | 7.8 | 0.00 | 0.00 | 0.00 | 45 | 1006.4 |
| 20260505015905 | 72 | 183 | 0.0 | 6.1 | 0.00 | 0.00 | 0.00 | 45 | 1006.3 |
| 20260505015405 | 72 | 192 | 1.7 | 7.8 | 0.00 | 0.00 | 0.00 | 44 | 1006.2 |
| 20260505014904 | 72 | 151 | 0.0 | 7.8 | 0.00 | 0.00 | 0.00 | 44 | 1006.3 |
| 20260505014404 | 72 | 237 | 0.9 | 7.0 | 0.00 | 0.00 | 0.00 | 43 | 1006.2 |
| 20260505013905 | 72 | 212 | 2.6 | 10.4 | 0.00 | 0.00 | 0.00 | 43 | 1006.1 |
| 20260505013404 | 73 | 175 | 1.7 | 10.4 | 0.00 | 0.00 | 0.00 | 43 | 1006.0 |
| 20260505012904 | 73 | 230 | 4.3 | 10.4 | 0.00 | 0.00 | 0.00 | 43 | 1006.0 |
| 20260505012404 | 73 | 269 | 4.3 | 10.4 | 0.00 | 0.00 | 0.00 | 43 | 1005.8 |
| 20260505011904 | 73 | 166 | 3.5 | 10.4 | 0.00 | 0.00 | 0.00 | 42 | 1005.7 |
| 20260505011405 | 73 | 178 | 2.6 | 7.0 | 0.00 | 0.00 | 0.00 | 42 | 1005.6 |
| 20260505010905 | 73 | 166 | 0.0 | 0.9 | 0.00 | 0.00 | 0.00 | 42 | 1005.7 |
| 20260505010405 | 73 | 191 | 2.6 | 10.4 | 0.00 | 0.00 | 0.00 | 41 | 1005.6 |
| 20260505005904 | 73 | 180 | 1.7 | 11.3 | 0.00 | 0.00 | 0.00 | 42 | 1005.6 |
| 20260505005404 | 74 | 173 | 0.0 | 6.1 | 0.00 | 0.00 | 0.00 | 41 | 1005.6 |
| 20260505004405 | 74 | 197 | 1.7 | 5.2 | 0.00 | 0.00 | 0.00 | 40 | 1005.4 |
| 20260505003905 | 74 | 199 | 5.2 | 10.4 | 0.00 | 0.00 | 0.00 | 40 | 1005.3 |
| 20260505003405 | 75 | 350 | 3.5 | 10.4 | 0.00 | 0.00 | 0.00 | 39 | 1005.3 |
| 20260505002904 | 75 | 259 | 2.6 | 7.8 | 0.00 | 0.00 | 0.00 | 39 | 1005.2 |
| 20260505001905 | 76 | 206 | 1.7 | 12.2 | 0.00 | 0.00 | 0.00 | 38 | 1005.2 |
| 20260505001404 | 76 | 173 | 1.7 | 7.8 | 0.00 | 0.00 | 0.00 | 38 | 1005.2 |
| 20260505000905 | 77 | 281 | 0.9 | 8.7 | 0.00 | 0.00 | 0.00 | 37 | 1005.1 |
| 20260504235904 | 78 | 157 | 7.0 | 17.4 | 0.00 | 0.00 | 0.00 | 35 | 1004.9 |
| 20260504235404 | 78 | 234 | 2.6 | 10.4 | 0.00 | 0.00 | 0.00 | 36 | 1004.8 |
| 20260504234904 | 78 | 144 | 4.3 | 12.2 | 0.00 | 0.00 | 0.00 | 35 | 1004.9 |
| 20260504234405 | 78 | 144 | 0.0 | 8.7 | 0.00 | 0.00 | 0.00 | 36 | 1005.0 |
| 20260504233904 | 78 | 165 | 5.2 | 11.3 | 0.00 | 0.00 | 0.00 | 35 | 1005.0 |
| 20260504233405 | 78 | 172 | 4.3 | 20.9 | 0.00 | 0.00 | 0.00 | 35 | 1005.1 |
| 20260504232905 | 78 | 176 | 4.3 | 13.0 | 0.00 | 0.00 | 0.00 | 36 | 1005.2 |
| 20260504232405 | 78 | 154 | 4.3 | 11.3 | 0.00 | 0.00 | 0.00 | 36 | 1005.3 |
| 20260504231905 | 77 | 157 | 4.3 | 12.2 | 0.00 | 0.00 | 0.00 | 36 | 1005.4 |
| 20260504231405 | 77 | 174 | 0.0 | 10.4 | 0.00 | 0.00 | 0.00 | 35 | 1005.5 |
| 20260504230904 | 77 | 175 | 2.6 | 12.2 | 0.00 | 0.00 | 0.00 | 34 | 1005.8 |
| 20260504230404 | 77 | 217 | 5.2 | 11.3 | 0.00 | 0.00 | 0.00 | 34 | 1005.7 |
| 20260504225905 | 78 | 144 | 0.9 | 10.4 | 0.00 | 0.00 | 0.00 | 35 | 1005.8 |
| 20260504224904 | 78 | 203 | 0.9 | 7.8 | 0.00 | 0.00 | 0.00 | 34 | 1006.7 |
| 20260504224405 | 79 | 188 | 1.7 | 7.8 | 0.00 | 0.00 | 0.00 | 34 | 1006.7 |
| 20260504223905 | 79 | 215 | 0.9 | 6.1 | 0.00 | 0.00 | 0.00 | 34 | 1006.8 |
| 20260504223404 | 79 | 152 | 0.9 | 6.1 | 0.00 | 0.00 | 0.00 | 35 | 1006.8 |
| 20260504222904 | 78 | 173 | 1.7 | 7.0 | 0.00 | 0.00 | 0.00 | 34 | 1007.0 |
| 20260504222405 | 78 | 223 | 1.7 | 11.3 | 0.00 | 0.00 | 0.00 | 33 | 1007.1 |
| 20260504221905 | 78 | 188 | 1.7 | 7.0 | 0.00 | 0.00 | 0.00 | 33 | 1007.3 |
| 20260504221405 | 78 | 233 | 0.9 | 7.8 | 0.00 | 0.00 | 0.00 | 35 | 1007.3 |
| 20260504220904 | 78 | 210 | 2.6 | 10.4 | 0.00 | 0.00 | 0.00 | 35 | 1007.4 |
| 20260504220404 | 78 | 310 | 1.7 | 7.0 | 0.00 | 0.00 | 0.00 | 36 | 1007.6 |
| 20260504215905 | 78 | 168 | 0.9 | 7.8 | 0.00 | 0.00 | 0.00 | 36 | 1007.6 |
| 20260504215404 | 78 | 221 | 0.9 | 5.2 | 0.00 | 0.00 | 0.00 | 36 | 1007.8 |
| 20260504214904 | 78 | 256 | 0.0 | 7.0 | 0.00 | 0.00 | 0.00 | 35 | 1007.8 |
| 20260504214405 | 78 | 245 | 1.7 | 7.0 | 0.00 | 0.00 | 0.00 | 35 | 1007.8 |
| 20260504213905 | 78 | 148 | 2.6 | 10.4 | 0.00 | 0.00 | 0.00 | 34 | 1007.8 |
| 20260504213404 | 78 | 245 | 0.9 | 6.1 | 0.00 | 0.00 | 0.00 | 34 | 1007.8 |
| 20260504212404 | 79 | 212 | 1.7 | 12.2 | 0.00 | 0.00 | 0.00 | 37 | 1007.7 |
| 20260504211904 | 79 | 207 | 0.9 | 4.3 | 0.00 | 0.00 | 0.00 | 36 | 1007.7 |
| 20260504210904 | 79 | 288 | 0.9 | 7.8 | 0.00 | 0.00 | 0.00 | 36 | 1007.7 |
| 20260504205904 | 79 | 263 | 1.7 | 6.1 | 0.00 | 0.00 | 0.00 | 35 | 1007.7 |
| 20260504205404 | 80 | 332 | 1.7 | 10.4 | 0.00 | 0.00 | 0.00 | 34 | 1007.7 |
| 20260504204904 | 80 | 163 | 1.7 | 10.4 | 0.00 | 0.00 | 0.00 | 35 | 1007.6 |
| 20260504204404 | 80 | 292 | 2.6 | 12.2 | 0.00 | 0.00 | 0.00 | 34 | 1007.5 |
| 20260504203905 | 80 | 235 | 2.6 | 7.8 | 0.00 | 0.00 | 0.00 | 34 | 1007.5 |
| 20260504202904 | 81 | 300 | 1.7 | 10.4 | 0.00 | 0.00 | 0.00 | 34 | 1007.5 |
| 20260504202404 | 81 | 182 | 1.7 | 10.4 | 0.00 | 0.00 | 0.00 | 35 | 1007.5 |
| 20260504201904 | 81 | 229 | 2.6 | 19.1 | 0.00 | 0.00 | 0.00 | 34 | 1007.5 |
| 20260504200904 | 82 | 270 | 1.7 | 10.4 | 0.00 | 0.00 | 0.00 | 36 | 1007.6 |
| 20260504200404 | 81 | 247 | 2.6 | 13.9 | 0.00 | 0.00 | 0.00 | 38 | 1007.6 |
| 20260504195404 | 80 | 247 | 0.9 | 8.7 | 0.00 | 0.00 | 0.00 | 39 | 1007.6 |
| 20260504194904 | 80 | 322 | 2.6 | 10.4 | 0.00 | 0.00 | 0.00 | 40 | 1007.6 |
| 20260504194405 | 79 | 163 | 4.3 | 13.0 | 0.00 | 0.00 | 0.00 | 39 | 1007.6 |
| 20260504193904 | 79 | 187 | 1.7 | 10.4 | 0.00 | 0.00 | 0.00 | 38 | 1007.6 |
| 20260504192904 | 81 | 214 | 1.7 | 12.2 | 0.00 | 0.00 | 0.00 | 37 | 1007.4 |
| 20260504191905 | 82 | 162 | 1.7 | 6.1 | 0.00 | 0.00 | 0.00 | 37 | 1007.3 |
| 20260504191404 | 81 | 228 | 2.6 | 12.2 | 0.00 | 0.00 | 0.00 | 37 | 1007.5 |
| 20260504190404 | 81 | 290 | 0.9 | 7.0 | 0.00 | 0.00 | 0.00 | 38 | 1007.7 |
| 20260504185904 | 80 | 273 | 2.6 | 13.9 | 0.00 | 0.00 | 0.00 | 36 | 1007.7 |
| 20260504185405 | 80 | 268 | 4.3 | 15.6 | 0.00 | 0.00 | 0.00 | 36 | 1007.8 |
| 20260504184904 | 80 | 201 | 1.7 | 10.4 | 0.00 | 0.00 | 0.00 | 38 | 1007.8 |
| 20260504184404 | 79 | 195 | 2.6 | 13.9 | 0.00 | 0.00 | 0.00 | 39 | 1007.9 |
| 20260504183904 | 79 | 192 | 4.3 | 11.3 | 0.00 | 0.00 | 0.00 | 39 | 1007.9 |
| 20260504183404 | 79 | 314 | 0.9 | 13.0 | 0.00 | 0.00 | 0.00 | 38 | 1008.0 |
| 20260504182905 | 79 | 279 | 0.9 | 7.0 | 0.00 | 0.00 | 0.00 | 39 | 1008.1 |
| 20260504182405 | 79 | 183 | 4.3 | 17.4 | 0.00 | 0.00 | 0.00 | 38 | 1008.2 |
| 20260504181405 | 79 | 213 | 0.9 | 10.4 | 0.00 | 0.00 | 0.00 | 38 | 1008.3 |
| 20260504180905 | 79 | 226 | 5.2 | 13.9 | 0.00 | 0.00 | 0.00 | 37 | 1008.4 |
| 20260504180404 | 79 | 333 | 2.6 | 18.2 | 0.00 | 0.00 | 0.00 | 37 | 1008.4 |
| 20260504175904 | 79 | 293 | 2.6 | 10.4 | 0.00 | 0.00 | 0.00 | 38 | 1008.5 |
| 20260504174904 | 79 | 278 | 0.9 | 1.7 | 0.00 | 0.00 | 0.00 | 40 | 1008.5 |
| 20260504173404 | 78 | 266 | 2.6 | 8.7 | 0.00 | 0.00 | 0.00 | 42 | 1008.7 |
| 20260504172904 | 78 | 204 | 0.9 | 13.9 | 0.00 | 0.00 | 0.00 | 44 | 1008.8 |
| 20260504172405 | 78 | 172 | 0.9 | 13.9 | 0.00 | 0.00 | 0.00 | 43 | 1008.8 |
| 20260504171904 | 78 | 206 | 0.9 | 7.8 | 0.00 | 0.00 | 0.00 | 44 | 1008.9 |
| 20260504171405 | 77 | 257 | 3.5 | 17.4 | 0.00 | 0.00 | 0.00 | 42 | 1009.1 |
| 20260504170904 | 78 | 280 | 3.5 | 13.0 | 0.00 | 0.00 | 0.00 | 42 | 1009.2 |
| 20260504170404 | 78 | 223 | 2.6 | 12.2 | 0.00 | 0.00 | 0.00 | 43 | 1009.2 |
| 20260504160404 | 75 | 140 | 3.5 | 11.3 | 0.00 | 0.00 | 0.00 | 50 | 1009.8 |
| 20260504150904 | 71 | 195 | 1.7 | 7.0 | 0.00 | 0.00 | 0.00 | 54 | 1010.1 |
| 20260504150404 | 71 | 319 | 0.0 | 8.7 | 0.00 | 0.00 | 0.00 | 53 | 1010.1 |
| 20260504140904 | 66 | 181 | 2.6 | 10.4 | 0.00 | 0.00 | 0.00 | 59 | 1010.7 |
| 20260504140404 | 65 | 181 | 2.6 | 7.0 | 0.00 | 0.00 | 0.00 | 59 | 1010.7 |
| 20260504130403 | 60 | 177 | 0.9 | 7.8 | 0.00 | 0.00 | 0.00 | 65 | 1011.6 |
| 20260504100403 | 56 | 112 | 0.0 | 0.0 | 0.00 | 0.00 | 0.00 | 69 | 1011.2 |
| 20260504081905 | 60 | 345 | 1.7 | 8.7 | 0.00 | 0.00 | 0.00 | 58 | 1011.9 |
| 20260504080906 | 60 | 161 | 0.0 | 0.0 | 0.00 | 0.00 | 0.00 | 58 | 1010.1 |
| 20260504080405 | 60 | 162 | 0.0 | 0.0 | 0.00 | 0.00 | 0.00 | 57 | 1010.1 |
| 20260504070405 | 61 | 182 | 0.9 | 7.0 | 0.00 | 0.00 | 0.00 | 54 | 1010.4 |
| 20260504050405 | 58 | 176 | 0.0 | 0.0 | 0.00 | 0.00 | 0.00 | 55 | 1011.4 |
| 20260504045905 | 58 | 173 | 0.0 | 0.0 | 0.00 | 0.00 | 0.00 | 55 | 1011.5 |
| 20260504045404 | 58 | 159 | 0.0 | 0.0 | 0.00 | 0.00 | 0.00 | 55 | 1011.5 |
| 20260504044906 | 58 | 180 | 0.0 | 0.0 | 0.00 | 0.00 | 0.00 | 55 | 1011.6 |
| 20260504044405 | 58 | 177 | 0.0 | 0.0 | 0.00 | 0.00 | 0.00 | 55 | 1011.7 |
| 20260504043905 | 58 | 155 | 0.0 | 0.0 | 0.00 | 0.00 | 0.00 | 55 | 1011.7 |
| 20260504043405 | 58 | 167 | 0.0 | 0.0 | 0.00 | 0.00 | 0.00 | 56 | 1011.7 |
| 20260504042905 | 58 | 148 | 0.0 | 0.0 | 0.00 | 0.00 | 0.00 | 56 | 1011.8 |
| 20260504042405 | 58 | 167 | 0.0 | 0.0 | 0.00 | 0.00 | 0.00 | 56 | 1011.8 |
| 20260504041405 | 58 | 142 | 0.0 | 0.0 | 0.00 | 0.00 | 0.00 | 56 | 1011.9 |
| 20260504040904 | 58 | 155 | 0.0 | 0.0 | 0.00 | 0.00 | 0.00 | 56 | 1012.1 |
| 20260504040405 | 58 | 168 | 0.0 | 0.0 | 0.00 | 0.00 | 0.00 | 56 | 1012.1 |
| 20260504035904 | 58 | 171 | 0.0 | 0.0 | 0.00 | 0.00 | 0.00 | 56 | 1012.1 |
| 20260504035405 | 58 | 189 | 0.0 | 0.0 | 0.00 | 0.00 | 0.00 | 56 | 1012.1 |
| 20260504034905 | 58 | 191 | 0.0 | 0.0 | 0.00 | 0.00 | 0.00 | 55 | 1012.2 |
| 20260504034404 | 58 | 148 | 0.0 | 0.0 | 0.00 | 0.00 | 0.00 | 55 | 1012.2 |
| 20260504033905 | 58 | 173 | 0.0 | 0.0 | 0.00 | 0.00 | 0.00 | 55 | 1012.2 |
| 20260504033404 | 59 | 199 | 0.0 | 0.0 | 0.00 | 0.00 | 0.00 | 55 | 1012.2 |
| 20260504032905 | 59 | 179 | 0.0 | 0.0 | 0.00 | 0.00 | 0.00 | 54 | 1012.4 |